• In Hungary
  • List of Countries
  • For 7 days
  • Water Temperature
  • Satellite Maps
  • Weather Map
  • News
  • Weather Widgets
  • user-avatar
    Login

    Hourly Weather Kongoussi

    Today, 21 November, Tuesday

    Time Temperature Precipitation Wind Pressure Humidity
    00:00 +30°C° 0 mm 2 mps 731 mmHg 21%
    01:00 +29°C° 0 mm 2 mps 730 mmHg 22%
    02:00 +29°C° 0 mm 2 mps 730 mmHg 23%
    03:00 +29°C° 0 mm 2 mps 730 mmHg 24%
    04:00 +28°C° 0 mm 2 mps 730 mmHg 23%
    05:00 +28°C° 0 mm 2 mps 730 mmHg 23%
    06:00 +28°C° 0 mm 2 mps 731 mmHg 23%
    07:00 +30°C° 0 mm 3 mps 731 mmHg 20%
    08:00 +33°C° 0 mm 3 mps 731 mmHg 17%
    09:00 +35°C° 0 mm 4 mps 732 mmHg 14%
    10:00 +36°C° 0 mm 4 mps 731 mmHg 13%
    11:00 +38°C° 0 mm 3 mps 731 mmHg 12%
    12:00 +39°C° 0 mm 3 mps 731 mmHg 12%
    13:00 +39°C° 0 mm 3 mps 730 mmHg 11%
    14:00 +40°C° 0 mm 3 mps 730 mmHg 11%
    15:00 +41°C° 0 mm 4 mps 729 mmHg 10%
    16:00 +38°C° 0 mm 3 mps 729 mmHg 11%
    17:00 +37°C° 0 mm 3 mps 729 mmHg 12%
    18:00 +35°C° 0 mm 3 mps 729 mmHg 13%
    19:00 +35°C° 0 mm 3 mps 730 mmHg 14%
    20:00 +34°C° 0 mm 3 mps 730 mmHg 14%
    21:00 +33°C° 0 mm 3 mps 731 mmHg 15%
    22:00 +33°C° 0 mm 3 mps 731 mmHg 15%
    23:00 +31°C° 0 mm 3 mps 731 mmHg 15%

    Tomorrow, 22 November, Wednesday

    Time Temperature Precipitation Wind Pressure Humidity
    00:00 +32°C° 0 mm 4 mps 731 mmHg 15%
    01:00 +30°C° 0 mm 4 mps 730 mmHg 16%
    02:00 +29°C° 0 mm 4 mps 730 mmHg 17%
    03:00 +28°C° 0 mm 5 mps 729 mmHg 18%
    04:00 +28°C° 0 mm 5 mps 730 mmHg 20%
    05:00 +27°C° 0 mm 5 mps 730 mmHg 23%
    06:00 +26°C° 0 mm 5 mps 730 mmHg 25%
    07:00 +28°C° 0 mm 5 mps 731 mmHg 23%
    08:00 +30°C° 0 mm 6 mps 731 mmHg 21%
    09:00 +33°C° 0 mm 6 mps 732 mmHg 19%
    10:00 +35°C° 0 mm 6 mps 731 mmHg 16%
    11:00 +38°C° 0 mm 6 mps 731 mmHg 12%
    12:00 +41°C° 0 mm 6 mps 731 mmHg 9%
    13:00 +41°C° 0 mm 6 mps 730 mmHg 9%
    14:00 +41°C° 0 mm 5 mps 729 mmHg 8%
    15:00 +42°C° 0 mm 5 mps 728 mmHg 8%
    16:00 +40°C° 0 mm 5 mps 728 mmHg 9%
    17:00 +37°C° 0 mm 4 mps 729 mmHg 10%
    18:00 +35°C° 0 mm 4 mps 729 mmHg 11%
    19:00 +34°C° 0 mm 4 mps 729 mmHg 11%
    20:00 +33°C° 0 mm 4 mps 730 mmHg 11%
    21:00 +32°C° 0 mm 4 mps 730 mmHg 11%
    22:00 +32°C° 0 mm 4 mps 730 mmHg 12%
    23:00 +30°C° 0 mm 4 mps 730 mmHg 12%

    Day after tomorrow, 23 November, Thursday

    Time Temperature Precipitation Wind Pressure Humidity
    00:00 +29°C° 0 mm 4 mps 730 mmHg 13%
    01:00 +29°C° 0 mm 4 mps 729 mmHg 13%
    02:00 +28°C° 0 mm 4 mps 729 mmHg 13%
    03:00 +28°C° 0 mm 4 mps 729 mmHg 13%
    04:00 +27°C° 0 mm 4 mps 729 mmHg 13%
    05:00 +27°C° 0 mm 4 mps 729 mmHg 13%
    06:00 +26°C° 0 mm 4 mps 729 mmHg 14%
    07:00 +29°C° 0 mm 4 mps 730 mmHg 12%
    08:00 +32°C° 0 mm 5 mps 731 mmHg 10%
    09:00 +35°C° 0 mm 6 mps 732 mmHg 8%
    10:00 +38°C° 0 mm 6 mps 731 mmHg 8%
    11:00 +39°C° 0 mm 6 mps 731 mmHg 8%
    12:00 +41°C° 0 mm 6 mps 731 mmHg 7%
    13:00 +41°C° 0 mm 5 mps 730 mmHg 7%
    14:00 +42°C° 0 mm 4 mps 729 mmHg 7%
    15:00 +42°C° 0 mm 4 mps 729 mmHg 7%
    16:00 +40°C° 0 mm 4 mps 729 mmHg 9%
    17:00 +37°C° 0 mm 3 mps 729 mmHg 10%
    18:00 +35°C° 0 mm 3 mps 729 mmHg 11%
    19:00 +34°C° 0 mm 3 mps 730 mmHg 11%
    20:00 +33°C° 0 mm 4 mps 730 mmHg 12%
    21:00 +32°C° 0 mm 4 mps 731 mmHg 12%
    22:00 +32°C° 0 mm 4 mps 731 mmHg 12%
    23:00 +30°C° 0 mm 4 mps 730 mmHg 13%

    24 November, Friday

    Time Temperature Precipitation Wind Pressure Humidity
    00:00 +29°C° 0 mm 4 mps 730 mmHg 13%
    01:00 +29°C° 0 mm 4 mps 730 mmHg 13%
    02:00 +28°C° 0 mm 3 mps 730 mmHg 13%
    03:00 +28°C° 0 mm 3 mps 729 mmHg 14%
    04:00 +27°C° 0 mm 3 mps 730 mmHg 14%
    05:00 +27°C° 0 mm 3 mps 730 mmHg 14%
    06:00 +26°C° 0 mm 3 mps 730 mmHg 14%
    07:00 +29°C° 0 mm 4 mps 731 mmHg 13%
    08:00 +32°C° 0 mm 5 mps 731 mmHg 11%
    09:00 +35°C° 0 mm 6 mps 732 mmHg 9%
    10:00 +36°C° 0 mm 6 mps 732 mmHg 8%
    11:00 +39°C° 0 mm 6 mps 731 mmHg 8%
    12:00 +41°C° 0 mm 6 mps 731 mmHg 7%
    13:00 +41°C° 0 mm 5 mps 730 mmHg 7%
    14:00 +41°C° 0 mm 5 mps 730 mmHg 7%
    15:00 +41°C° 0 mm 4 mps 729 mmHg 7%
    16:00 +38°C° 0 mm 4 mps 729 mmHg 8%
    17:00 +36°C° 0 mm 4 mps 729 mmHg 9%
    18:00 +34°C° 0 mm 3 mps 729 mmHg 10%
    19:00 +33°C° 0 mm 3 mps 730 mmHg 11%
    20:00 +32°C° 0 mm 4 mps 730 mmHg 11%
    21:00 +32°C° 0 mm 4 mps 731 mmHg 12%
    22:00 +30°C° 0 mm 4 mps 731 mmHg 12%
    23:00 +29°C° 0 mm 3 mps 731 mmHg 12%

    25 November, Saturday

    Time Temperature Precipitation Wind Pressure Humidity
    00:00 +29°C° 0 mm 3 mps 730 mmHg 12%
    01:00 +28°C° 0 mm 3 mps 730 mmHg 13%
    02:00 +28°C° 0 mm 3 mps 730 mmHg 13%
    03:00 +27°C° 0 mm 3 mps 730 mmHg 13%
    04:00 +27°C° 0 mm 3 mps 730 mmHg 13%
    05:00 +26°C° 0 mm 3 mps 730 mmHg 13%
    06:00 +26°C° 0 mm 3 mps 731 mmHg 14%
    07:00 +29°C° 0 mm 4 mps 731 mmHg 12%
    08:00 +32°C° 0 mm 5 mps 732 mmHg 10%
    09:00 +34°C° 0 mm 6 mps 732 mmHg 9%
    10:00 +36°C° 0 mm 6 mps 732 mmHg 8%
    11:00 +39°C° 0 mm 6 mps 731 mmHg 8%
    12:00 +41°C° 0 mm 6 mps 731 mmHg 7%
    13:00 +41°C° 0 mm 5 mps 730 mmHg 7%
    14:00 +41°C° 0 mm 5 mps 730 mmHg 7%
    15:00 +41°C° 0 mm 4 mps 729 mmHg 7%
    16:00 +38°C° 0 mm 4 mps 729 mmHg 8%
    17:00 +36°C° 0 mm 4 mps 730 mmHg 9%
    18:00 +34°C° 0 mm 3 mps 730 mmHg 10%
    19:00 +33°C° 0 mm 3 mps 731 mmHg 11%
    20:00 +32°C° 0 mm 4 mps 731 mmHg 12%
    21:00 +30°C° 0 mm 4 mps 732 mmHg 12%
    22:00 +30°C° 0 mm 4 mps 731 mmHg 13%
    23:00 +29°C° 0 mm 4 mps 731 mmHg 13%

    26 November, Sunday

    Time Temperature Precipitation Wind Pressure Humidity
    00:00 +29°C° 0 mm 4 mps 731 mmHg 13%
    01:00 +28°C° 0 mm 4 mps 731 mmHg 14%
    02:00 +28°C° 0 mm 4 mps 731 mmHg 14%
    03:00 +27°C° 0 mm 4 mps 731 mmHg 15%
    04:00 +27°C° 0 mm 4 mps 731 mmHg 15%
    05:00 +26°C° 0 mm 4 mps 731 mmHg 16%
    06:00 +26°C° 0 mm 4 mps 731 mmHg 16%
    07:00 +29°C° 0 mm 6 mps 732 mmHg 14%
    08:00 +32°C° 0 mm 7 mps 733 mmHg 12%
    09:00 +35°C° 0 mm 8 mps 733 mmHg 11%
    10:00 +37°C° 0 mm 8 mps 733 mmHg 10%
    11:00 +39°C° 0 mm 8 mps 733 mmHg 9%
    12:00 +41°C° 0 mm 7 mps 732 mmHg 8%
    13:00 +41°C° 0 mm 7 mps 732 mmHg 7%
    14:00 +41°C° 0 mm 7 mps 731 mmHg 7%
    15:00 +41°C° 0 mm 6 mps 730 mmHg 7%
    16:00 +39°C° 0 mm 6 mps 731 mmHg 8%
    17:00 +36°C° 0 mm 5 mps 731 mmHg 9%
    18:00 +34°C° 0 mm 4 mps 731 mmHg 11%
    19:00 +33°C° 0 mm 4 mps 731 mmHg 11%
    20:00 +32°C° 0 mm 4 mps 732 mmHg 12%
    21:00 +30°C° 0 mm 4 mps 732 mmHg 13%
    22:00 +30°C° 0 mm 4 mps 732 mmHg 14%
    23:00 +29°C° 0 mm 4 mps 732 mmHg 14%
    Show more